Location: Unspecified
(0.0000°N, 0.0000°E)
Time: 17:33:09
(UTC+00:00)

Vanguard 3 - Pass Details

Date: 14 December 2017
Orbit: 508 x 3264 km, 33.3° (Epoch: 19 June)

Event Time Altitude Azimuth Distance (km) Brightness Sun altitude
Rises 20:13:43 0° 300° (WNW) 3,844 11.0 -31.5°
Reaches altitude 10° 20:15:53 10° 298° (WNW) 3,145 10.5 -32.0°
Maximum altitude 20:24:02 75° 214° (SW) 1,828 8.8 -33.8°
Drops below altitude 10° 20:39:01 10° 130° (SE) 5,462 11.2 -37.1°
Sets 20:44:07 0° 129° (SE) 6,801 11.7 -38.2°
